Temp
-2 -2 -1 -1 -1 -1 -1 -1 -3 -1 -1 -2 -3 -2 0 1 2 3 4 2 2 2 3 5 7 7 8 8 9 9 9 8 8 8 9 10 9 9 9 8 8 8 8 11
-2 -2 -1 -1 -1 -1 -1 -2 -2 -1 -2 -3 -2 -1 -0 1 1 3 3 3 2 1 2 4 5 6 7 7 9 9 9 8 8 7 9 10 9 9 8 6 7 8 8 11
-2 -2 -2 -1 -2 -2 -2 -2 -4 -2 -1 -1 -1 -0 1 1 2 3 4 3 2 2 3 3 4 4 6 7 8 8 8 7 8 9 8 8 8 8 9 8 7 9 9 10
-2 -2 -2 -1 -1 -2 -2 -3 -4 -3 -4 -2 -1 -1 -0 1 2 2 1 2 2 3 3 4 4 4 6 7 7 7 8 7 8 8 8 8 8 8 9 8 9 8 10 10
-2 -2 -2 -1 -1 -2 -2 -2 -3 -3 -3 -2 -2 -1 0 0 0 1 2 2 4 3 4 3 4 4 5 5 7 7 7 7 7 7 8 8 8 8 8 9 9 9 9 9
-3 -2 -2 -1 -1 -2 -2 -2 -2 -3 -3 -1 -1 -1 -1 0 1 2 1 2 4 4 3 2 2 3 4 5 6 6 7 7 7 7 7 7 7 8 9 9 10 10 9 11
-3 -2 -2 -2 -2 -1 -2 -2 -2 -3 -3 -2 -0 -0 -0 0 1 1 2 2 2 3 3 4 4 4 4 5 6 5 6 6 6 6 6 5 8 9 9 9 10 9 10 9
-3 -3 -2 -2 -2 -1 -1 -2 -2 -2 -4 -2 -1 -1 -0 -0 1 1 1 2 1 2 2 4 5 5 6 5 4 5 6 6 5 6 6 7 8 7 7 7 8 7 7 7
-4 -3 -2 -2 -2 -2 -1 -2 -3 -2 -3 -2 -1 -1 -1 -0 -0 0 1 2 2 2 2 3 4 4 5 6 6 4 4 5 6 5 5 5 6 6 6 7 8 5 5 7
-4 -3 -2 -2 -2 -2 -2 -2 -2 -2 -3 -1 -2 -1 -0 0 -1 -0 -0 0 1 2 1 3 3 4 4 5 6 5 4 4 4 4 5 6 4 5 5 8 5 3 2 3
-4 -3 -3 -2 -2 -2 -2 -1 -2 -2 -2 -1 -1 -0 -0 -0 -1 -0 1 0 1 1 2 2 2 3 3 4 5 5 5 5 4 5 4 4 3 5 5 3 1 0 -0 -1
-5 -4 -3 -3 -2 -1 -1 -2 -1 -1 -2 -2 -1 -0 0 0 -0 -0 -0 0 -1 -1 1 1 1 2 2 2 4 4 4 3 4 4 4 2 1 1 -0 -1 -1 -2 -1 -2
-4 -4 -3 -2 -2 -1 -1 -1 -1 -2 -2 -2 -2 1 1 -0 -0 -0 -1 0 0 0 -0 -0 1 2 2 2 3 3 2 1 3 3 1 -1 -1 -2 -2 -3 -4 -3 -3 -3
-4 -3 -2 -2 -1 -1 -1 -1 -1 -2 -2 -2 -0 1 1 1 1 0 -0 0 -0 0 0 0 1 1 1 2 3 2 1 1 -1 1 -0 -1 -2 -3 -3 -4 -4 -4 -4 -4
-4 -3 -2 -1 -1 -1 -1 -1 -0 -1 -1 -2 -1 1 1 1 1 1 0 -1 -0 -0 0 1 1 0 1 1 1 0 -1 -1 -0 -0 -2 -2 -3 -4 -4 -4 -5 -5 -5 -6
-3 -3 -2 -1 -1 -1 -1 -1 -1 -1 -1 -1 -2 0 1 1 0 0 -1 -0 -1 -0 0 1 1 2 1 2 1 -2 -3 -4 -4 -3 -3 -4 -4 -5 -5 -6 -7 -6 -6 -7
-3 -3 -2 -1 -1 -1 -1 -1 -1 -1 -1 -1 -1 -1 -1 -1 -1 -1 -1 -1 -0 0 -0 -1 0 1 0 0 0 -3 -4 -4 -4 -4 -3 -4 -5 -7 -7 -7 -8 -8 -8 -8
-3 -2 -2 -1 -1 -1 -1 -1 -1 -2 -1 -1 -1 -2 -1 -1 -1 -2 -1 -1 -1 -0 -1 -0 0 -0 -1 -1 -4 -5 -5 -5 -6 -6 -5 -6 -7 -7 -7 -8 -9 -9 -10 -11
-3 -2 -2 -2 -2 -1 -1 -1 -1 -1 -1 -1 -2 -2 -2 -1 -1 -1 -1 -0 -2 -1 -0 -0 0 -0 -1 -3 -5 -6 -7 -7 -7 -7 -7 -7 -8 -9 -9 -10 -10 -10 -11 -11
-3 -3 -2 -2 -1 -1 -1 -2 -2 -2 -1 -2 -2 -2 -0 -0 -0 -1 -1 -1 -0 0 0 -1 -1 -3 -7 -7 -7 -7 -7 -7 -6 -6 -7 -8 -8 -10 -11 -11 -12 -12 -12 -11
-3 -2 -1 -2 -1 -1 -1 -2 -2 -2 -2 -2 -2 -2 -0 -0 -0 -0 -0 -0 1 0 0 0 -2 -2 -6 -8 -8 -8 -8 -8 -9 -9 -10 -10 -10 -11 -12 -12 -13 -12 -12 -12
-2 -1 -1 -1 -1 -1 -1 -1 -1 -1 -0 -2 -2 -2 -1 -0 -0 -1 -1 0 0 1 -1 -1 -3 -6 -8 -9 -8 -9 -9 -10 -10 -11 -11 -12 -12 -11 -11 -11 -12 -12 -12 -12
-1 -1 -1 -2 -2 -1 -1 -2 -2 -2 -3 -2 -1 -1 -1 -1 -1 -0 -0 -0 1 -2 -1 -1 -6 -8 -9 -9 -9 -9 -10 -10 -10 -10 -11 -11 -11 -11 -12 -12 -12 -12 -12 -13
-1 -2 -3 -2 -3 -3 -5 -3 -3 -1 -1 -1 -1 -1 -1 -2 -1 -0 1 -1 -1 -1 -2 -3 -7 -9 -10 -9 -9 -9 -9 -10 -10 -10 -11 -11 -11 -12 -12 -13 -13 -13 -13 -13
-4 -3 -5 -7 -6 -5 -3 -3 -2 -1 -1 -0 -0 -1 -1 -2 -1 -3 -3 -2 -1 -1 -2 -7 -9 -9 -9 -9 -10 -10 -10 -10 -10 -10 -11 -11 -11 -11 -11 -12 -12 -12 -13 -13
-4 -5 -6 -5 -4 -4 -3 -2 -2 -1 0 1 0 -2 -2 -2 -3 -2 -1 -1 -1 -4 -9 -10 -9 -9 -9 -9 -10 -10 -10 -10 -10 -10 -11 -11 -11 -12 -12 -12 -12 -12 -13 -13
-5 -8 -7 -6 -5 -5 -5 -3 -3 -1 0 -3 -3 -3 -2 -3 -4 -4 -6 -3 -7 -11 -10 -9 -8 -9 -10 -10 -10 -10 -10 -10 -11 -11 -12 -12 -12 -13 -13 -13 -13 -14 -14 -14
Height
1478 1480 1480 1479 1478 1477 1476 1474 1474 1472 1472 1472 1471 1469 1464 1457 1448 1446 1444 1442 1435 1427 1420 1404 1397 1403 1402 1403 1401 1403 1406 1414 1423 1428 1427 1427 1430 1432 1433 1435 1438 1438 1438 1420
1476 1478 1478 1478 1477 1476 1476 1475 1474 1473 1472 1475 1471 1467 1461 1456 1451 1444 1440 1437 1436 1431 1420 1410 1405 1406 1405 1403 1402 1405 1406 1416 1423 1432 1431 1429 1429 1432 1434 1443 1441 1436 1434 1415
1474 1475 1476 1476 1476 1476 1476 1475 1476 1474 1474 1473 1473 1466 1459 1455 1449 1443 1439 1438 1433 1421 1414 1412 1412 1414 1411 1406 1406 1408 1408 1416 1415 1418 1425 1429 1432 1432 1432 1435 1438 1428 1426 1415
1471 1473 1474 1475 1475 1475 1476 1476 1479 1479 1479 1472 1472 1469 1465 1458 1451 1445 1441 1437 1432 1427 1422 1419 1416 1416 1416 1414 1412 1410 1414 1422 1422 1424 1426 1428 1429 1430 1430 1432 1430 1433 1417 1418
1468 1470 1472 1473 1473 1475 1476 1476 1477 1479 1477 1474 1472 1469 1465 1462 1456 1450 1443 1442 1438 1435 1431 1429 1428 1428 1426 1424 1416 1415 1417 1425 1426 1428 1426 1427 1427 1427 1428 1426 1424 1422 1419 1415
1465 1467 1469 1471 1472 1474 1474 1475 1476 1478 1477 1474 1472 1470 1468 1464 1460 1450 1448 1445 1439 1435 1436 1434 1432 1433 1429 1427 1425 1422 1422 1425 1427 1429 1430 1428 1428 1426 1425 1423 1419 1418 1416 1411
1462 1464 1466 1468 1470 1472 1474 1475 1476 1478 1478 1476 1472 1469 1468 1465 1462 1459 1449 1445 1443 1442 1438 1432 1430 1430 1428 1428 1427 1427 1428 1427 1429 1431 1430 1437 1426 1424 1424 1422 1419 1419 1414 1414
1458 1461 1463 1465 1468 1470 1471 1473 1474 1476 1479 1476 1471 1469 1466 1462 1459 1457 1453 1449 1447 1443 1437 1436 1429 1429 1427 1430 1432 1429 1428 1429 1434 1434 1434 1429 1424 1429 1431 1428 1423 1424 1419 1418
1455 1457 1460 1463 1465 1467 1468 1469 1472 1474 1477 1473 1471 1470 1467 1465 1462 1457 1455 1451 1448 1444 1442 1439 1434 1434 1431 1429 1430 1433 1431 1431 1432 1439 1439 1439 1433 1432 1430 1428 1422 1430 1425 1417
1450 1453 1456 1459 1462 1464 1465 1467 1469 1472 1473 1469 1470 1470 1468 1467 1465 1463 1459 1455 1450 1447 1446 1441 1441 1437 1437 1435 1431 1433 1434 1438 1439 1441 1439 1432 1438 1432 1427 1425 1437 1437 1433 1428
1445 1448 1451 1455 1457 1460 1462 1464 1466 1469 1469 1467 1467 1467 1467 1467 1467 1466 1461 1458 1456 1454 1450 1449 1448 1445 1443 1441 1438 1436 1435 1438 1442 1440 1440 1440 1440 1432 1434 1445 1444 1442 1438 1437
1440 1443 1447 1450 1453 1456 1458 1460 1462 1465 1467 1465 1464 1464 1463 1464 1465 1467 1465 1465 1464 1463 1460 1458 1454 1451 1450 1449 1440 1441 1441 1447 1446 1445 1445 1447 1444 1446 1448 1446 1446 1446 1443 1442
1435 1438 1442 1446 1448 1451 1454 1455 1458 1462 1464 1462 1460 1456 1458 1457 1459 1463 1466 1463 1463 1464 1463 1462 1459 1452 1453 1451 1449 1446 1450 1451 1449 1448 1454 1454 1451 1451 1450 1450 1449 1449 1448 1446
1431 1434 1438 1440 1443 1446 1449 1449 1453 1458 1462 1461 1455 1454 1453 1453 1454 1457 1460 1463 1464 1464 1463 1461 1458 1458 1456 1453 1452 1452 1457 1455 1456 1451 1455 1456 1456 1456 1455 1454 1454 1452 1451 1449
1426 1430 1433 1436 1439 1442 1445 1447 1449 1452 1460 1457 1453 1452 1451 1451 1452 1453 1457 1460 1463 1463 1462 1460 1459 1459 1457 1455 1455 1457 1460 1461 1458 1457 1461 1459 1462 1460 1458 1457 1456 1454 1453 1452
1422 1426 1430 1433 1436 1439 1442 1445 1447 1449 1453 1457 1455 1451 1449 1449 1449 1451 1455 1459 1461 1462 1461 1459 1457 1457 1458 1454 1455 1461 1462 1463 1462 1463 1462 1462 1463 1462 1461 1460 1458 1456 1454 1453
1419 1423 1426 1428 1433 1436 1439 1442 1442 1444 1450 1454 1453 1448 1448 1448 1449 1451 1454 1457 1459 1460 1460 1459 1457 1456 1457 1456 1455 1463 1464 1464 1463 1462 1463 1462 1463 1464 1463 1462 1460 1458 1455 1454
1415 1420 1423 1427 1430 1433 1437 1439 1440 1443 1447 1451 1451 1449 1448 1448 1449 1451 1453 1456 1458 1459 1459 1457 1456 1456 1456 1455 1462 1463 1464 1464 1464 1463 1462 1463 1463 1463 1462 1461 1461 1460 1457 1456
1412 1417 1421 1423 1425 1428 1431 1437 1441 1443 1449 1447 1448 1448 1447 1447 1448 1450 1453 1454 1457 1457 1456 1455 1455 1454 1452 1457 1460 1463 1463 1464 1464 1465 1463 1463 1463 1463 1462 1462 1461 1460 1459 1458
1410 1415 1417 1416 1419 1426 1432 1436 1438 1441 1442 1443 1443 1444 1443 1447 1447 1449 1452 1452 1452 1452 1452 1452 1451 1453 1458 1459 1460 1462 1462 1462 1462 1463 1464 1464 1464 1464 1462 1460 1460 1459 1459 1458
1402 1404 1408 1413 1418 1424 1429 1430 1432 1434 1436 1435 1437 1439 1441 1444 1445 1447 1449 1450 1449 1448 1445 1447 1449 1448 1456 1458 1460 1461 1461 1461 1462 1462 1463 1463 1464 1463 1463 1461 1461 1460 1460 1459
1391 1398 1405 1413 1412 1415 1419 1423 1427 1426 1422 1426 1430 1434 1437 1440 1442 1443 1447 1446 1447 1441 1444 1446 1447 1453 1456 1458 1459 1460 1461 1461 1462 1463 1463 1463 1463 1462 1462 1463 1463 1463 1463 1461
1385 1394 1400 1402 1404 1407 1408 1414 1416 1415 1416 1419 1423 1429 1433 1438 1439 1440 1442 1442 1439 1442 1442 1440 1450 1454 1456 1458 1459 1460 1461 1462 1462 1462 1462 1463 1463 1464 1465 1466 1466 1465 1464 1463
1384 1387 1394 1394 1399 1400 1398 1397 1401 1403 1406 1412 1418 1424 1429 1432 1436 1436 1435 1438 1440 1439 1441 1439 1450 1453 1456 1457 1459 1460 1461 1461 1462 1463 1464 1465 1466 1467 1468 1468 1467 1467 1466 1465
1377 1381 1391 1394 1394 1394 1393 1396 1399 1402 1406 1411 1418 1425 1428 1431 1433 1436 1438 1438 1434 1434 1432 1445 1449 1452 1455 1457 1459 1460 1462 1463 1465 1466 1467 1468 1469 1470 1470 1470 1470 1470 1469 1468
1380 1385 1390 1392 1393 1394 1397 1398 1400 1402 1407 1412 1417 1422 1427 1429 1430 1431 1430 1430 1427 1434 1441 1444 1449 1453 1455 1457 1459 1461 1463 1464 1466 1467 1469 1470 1470 1471 1472 1472 1472 1471 1470 1470
1384 1391 1392 1390 1391 1394 1395 1398 1401 1404 1408 1412 1415 1422 1423 1428 1432 1432 1434 1429 1435 1438 1442 1447 1451 1453 1456 1458 1460 1463 1465 1466 1468 1469 1471 1472 1472 1473 1473 1473 1472 1472 1471 1470
Wind_Speed
4 6 8 7 10 11 9 6 2 9 7 5 1 2 3 12 13 15 7 6 6 7 4 5 4 4 6 12 3 4 1 4 5 2 3 4 3 4 3 2 4 2 3 5
6 6 6 6 8 11 7 4 3 4 5 2 3 5 6 7 8 11 3 4 3 14 7 3 4 5 10 13 3 2 3 2 6 7 5 2 3 3 4 3 1 4 2 3
7 6 4 4 8 7 2 3 3 3 2 1 3 9 5 7 8 12 6 4 8 6 5 5 4 3 7 12 8 13 4 3 3 4 5 3 2 2 2 2 2 4 8 15
9 6 3 3 5 2 1 3 1 2 3 3 7 6 6 9 10 5 5 3 8 9 4 6 9 11 7 5 8 5 4 5 5 5 3 3 2 3 5 7 10 7 10 14
10 7 4 3 4 3 4 2 3 1 4 9 5 4 5 9 11 4 6 10 9 8 8 10 8 6 3 3 8 4 3 3 1 1 3 4 4 7 10 9 10 13 17 19
9 8 4 4 5 5 4 6 3 1 3 4 4 2 5 8 12 7 13 15 6 5 10 17 17 10 9 4 3 3 3 3 1 2 3 4 5 4 7 7 6 5 10 13
10 10 7 6 7 7 8 4 4 3 2 2 4 9 11 11 11 9 15 14 7 8 23 18 9 8 6 4 4 2 2 3 1 1 2 2 2 8 2 8 8 11 12 9
12 13 8 9 10 8 13 10 6 4 2 4 8 7 7 13 17 3 5 7 14 20 10 3 2 1 2 4 7 2 1 2 3 1 1 5 2 6 5 5 8 13 10 8
12 15 10 11 11 11 14 17 12 5 2 3 4 4 6 4 4 7 4 11 11 16 2 3 5 3 3 2 2 6 5 4 2 1 1 2 4 10 13 6 3 17 19 6
14 17 14 15 13 14 16 17 18 10 4 7 7 3 3 4 2 4 6 11 10 17 5 3 4 3 3 2 2 2 3 3 1 2 2 4 7 16 12 2 4 15 18 14
15 18 17 16 14 15 18 20 16 16 7 12 12 8 8 7 2 3 7 4 4 5 6 3 3 2 3 3 3 3 3 2 1 1 2 2 15 5 5 1 8 11 15 16
16 16 20 18 15 15 18 20 18 17 13 9 9 9 12 12 14 7 4 0 2 5 3 3 3 2 3 5 2 5 3 4 2 3 4 7 15 15 11 11 11 14 14 13
15 16 17 18 21 19 18 26 19 20 13 17 20 13 8 12 21 17 2 2 2 1 4 2 2 2 3 3 2 3 2 10 2 2 7 12 16 16 16 15 16 14 14 13
17 19 14 14 18 19 19 26 24 19 5 3 5 5 7 3 9 17 20 10 1 3 5 2 2 1 4 2 3 2 3 6 5 1 5 3 18 16 13 14 14 15 15 14
17 15 11 14 20 15 14 16 24 25 12 2 6 11 5 3 5 12 14 15 17 9 3 1 1 2 2 1 1 2 4 3 2 3 8 8 10 11 11 13 14 14 13 13
17 18 14 12 18 14 15 7 20 15 23 3 2 3 3 2 7 4 17 10 8 4 3 2 2 2 1 2 1 3 5 5 7 3 4 12 10 10 9 10 11 11 11 12
18 17 17 13 18 15 14 4 2 19 26 4 3 3 1 2 8 7 12 14 4 4 2 3 2 1 1 1 2 6 6 5 6 8 5 6 9 6 7 7 7 8 10 11
19 14 15 17 16 17 21 15 4 16 17 5 2 3 1 7 4 4 5 7 9 3 3 3 2 2 1 2 6 5 4 4 7 8 7 6 5 5 7 7 5 8 10 10
17 14 14 12 13 11 15 12 10 7 10 3 3 3 3 6 3 4 3 5 2 4 3 3 2 2 3 3 10 6 4 3 3 3 5 4 5 6 7 7 8 8 8 8
21 17 11 8 13 13 12 17 16 11 8 7 4 4 2 7 4 2 4 3 2 3 4 4 3 1 5 6 8 6 4 3 3 6 3 4 5 6 8 9 8 7 6 6
18 12 9 7 28 18 11 6 6 7 4 10 7 10 5 8 3 2 4 2 2 2 3 5 2 2 5 8 7 5 4 4 5 5 6 5 5 5 5 7 8 8 8 9
23 17 19 29 8 6 5 4 4 4 6 11 9 9 7 8 5 3 5 3 3 4 6 2 2 2 11 10 6 4 4 4 6 6 7 7 7 7 7 8 10 10 11 11
21 9 9 7 4 4 7 8 4 5 9 12 15 7 8 5 6 3 3 5 3 4 1 2 1 10 10 9 7 5 5 5 5 6 6 6 7 9 10 11 11 10 10 11
7 7 6 3 3 4 3 4 4 6 11 23 21 8 4 5 4 1 3 2 2 2 2 3 5 13 11 8 6 6 7 7 8 9 10 11 10 11 12 12 13 11 11 12
4 4 3 3 2 3 6 10 12 10 23 26 14 6 3 1 2 1 3 2 3 3 2 3 13 17 13 10 9 9 9 10 10 11 11 11 11 9 9 10 9 8 9 9
3 5 4 4 3 4 6 12 11 17 25 21 5 3 2 2 2 3 5 4 4 3 3 14 21 17 13 12 12 11 10 10 10 10 9 9 9 8 7 6 6 7 7 8
4 3 7 7 9 6 6 7 7 19 19 2 4 4 4 3 2 2 3 2 1 9 19 22 18 17 15 13 13 12 11 10 10 9 9 8 7 5 5 5 5 5 7 8
Wind_Direction
281 311 325 335 333 339 341 358 18 338 359 5 119 251 244 304 296 305 284 286 337 289 289 292 72 105 46 346 162 90 61 107 109 100 300 160 130 129 141 170 136 258 311 278
261 293 321 331 331 344 340 0 318 347 18 25 331 293 276 272 306 309 288 278 319 293 279 272 54 52 337 14 66 131 178 90 126 136 113 75 112 129 122 142 185 232 224 262
246 273 305 310 326 330 331 4 12 1 20 326 324 327 318 322 298 299 296 289 291 287 343 40 61 50 359 359 40 47 73 60 69 109 109 135 169 169 201 168 231 294 246 285
241 252 283 287 305 284 179 59 92 2 323 335 322 305 317 338 355 326 316 305 344 355 347 11 40 35 40 4 353 35 69 71 73 93 128 174 226 246 272 268 252 254 286 286
231 234 247 254 267 215 190 136 123 292 278 306 315 353 341 344 340 303 352 359 341 18 13 17 23 1 342 320 346 37 22 109 104 81 33 77 277 281 290 271 265 252 268 277
224 221 224 228 242 228 200 202 192 303 304 323 323 286 333 318 349 307 328 333 325 28 350 323 295 287 290 305 342 34 43 119 82 93 23 322 290 148 354 332 310 273 305 308
224 213 217 225 236 245 236 217 147 149 283 289 297 312 315 308 322 310 298 347 15 344 326 314 279 272 274 302 342 341 105 91 60 56 325 59 104 307 65 359 357 346 313 346
232 216 220 222 226 231 233 221 211 167 266 266 298 322 298 311 314 301 304 343 338 332 331 338 300 23 113 79 27 153 108 97 92 73 25 301 37 45 1 354 340 3 347 104
242 219 227 224 227 228 243 226 214 191 180 240 257 314 311 313 322 335 331 341 345 360 28 3 17 42 343 13 104 53 67 66 80 100 49 285 62 333 327 295 275 0 349 97
240 224 230 228 225 226 230 235 234 214 201 266 237 229 326 333 350 310 304 337 344 8 5 28 22 12 318 10 18 20 57 51 98 144 234 282 349 324 312 224 357 10 22 15
237 231 230 224 231 219 226 232 238 234 219 261 251 252 238 260 300 324 317 350 11 347 19 1 6 3 17 313 20 3 41 29 73 132 240 300 360 16 33 28 39 40 51 60
243 231 224 230 233 221 228 220 232 241 232 256 281 270 264 264 257 251 337 111 17 13 358 4 309 359 4 359 44 2 59 20 332 354 359 30 55 68 45 63 72 47 67 72
230 219 220 228 227 225 221 223 217 214 235 274 271 282 295 257 236 234 258 285 121 298 33 302 303 353 345 17 2 339 77 21 27 341 46 32 45 57 57 56 65 67 69 65
222 216 232 241 221 214 219 221 226 212 193 260 277 301 327 274 222 218 226 229 135 351 336 2 349 320 9 343 334 25 357 342 337 341 25 89 43 48 57 64 60 57 57 60
215 222 230 217 208 206 216 230 235 222 197 221 290 302 323 265 228 215 214 221 241 277 291 219 252 262 299 186 106 58 19 11 360 48 352 85 50 48 53 57 52 52 52 49
212 211 224 227 207 198 198 172 222 226 219 247 289 280 258 290 197 187 202 216 215 223 242 268 254 249 207 279 132 93 94 76 45 33 85 102 98 72 45 50 44 41 51 55
217 216 210 219 203 200 189 180 130 202 214 205 269 289 205 151 148 147 184 201 208 219 259 258 259 172 268 268 212 125 98 89 62 54 182 81 56 56 56 53 46 41 53 53
213 217 222 208 213 210 213 214 269 174 174 183 217 266 266 170 143 119 140 165 199 232 240 254 212 164 228 227 123 105 102 126 48 46 64 83 88 58 47 50 50 51 56 52
218 224 222 225 213 200 211 210 226 257 189 203 175 188 221 166 111 116 133 156 159 201 227 224 213 195 225 122 143 119 81 98 22 99 72 63 55 49 45 47 55 60 66 59
218 217 216 204 176 170 159 148 161 176 205 204 205 194 162 175 153 116 131 183 198 207 219 164 215 190 121 127 133 128 97 49 51 165 64 83 63 54 48 46 48 55 61 62
220 197 181 157 153 158 177 178 170 165 184 188 185 180 155 183 160 144 202 168 193 239 188 197 194 231 163 150 129 101 69 57 72 90 93 80 84 83 71 61 64 72 81 79
197 165 139 162 166 156 157 157 158 207 196 167 161 172 168 161 176 124 174 200 195 247 139 168 246 100 142 146 137 110 83 74 86 94 94 89 82 74 81 82 82 84 83 79
143 149 150 188 160 150 174 174 198 184 158 171 161 153 147 148 187 165 166 203 231 111 170 230 100 147 150 148 137 118 106 101 97 91 96 96 89 95 96 98 89 80 76 73
171 167 148 201 163 227 187 160 154 161 161 157 155 125 137 160 157 179 186 148 161 176 231 220 154 159 147 152 142 138 127 114 107 99 98 101 103 103 100 91 80 67 62 54
101 103 138 171 188 116 118 128 122 130 147 143 127 99 132 98 133 192 121 136 231 234 223 145 154 161 159 155 149 140 129 122 119 113 113 111 105 102 96 87 76 58 47 38
82 69 95 135 132 104 127 133 120 134 145 136 120 115 125 178 159 155 202 172 221 183 163 148 153 153 151 147 144 137 132 130 128 125 122 118 112 103 90 77 68 57 47 37
66 64 88 94 91 104 98 121 128 148 151 130 123 139 178 112 110 201 206 207 141 144 141 148 151 150 147 142 139 137 135 136 135 131 125 120 113 102 83 66 54 40 26 17